Wind_Speed
20 19 19 18 16 16 17 18 17 17 17 16 16 16 17 17 16 17 18 18 18 19 19 19 19 19 19 19 19 19 19 20 20 20 20 21 21 22 22 22 21 21 21 22
20 20 20 20 19 18 19 18 18 18 19 18 18 18 18 18 18 19 19 19 20 21 21 21 21 21 21 20 20 20 20 20 21 22 22 22 22 22 23 22 22 22 22 22
21 20 20 21 21 20 20 20 20 20 20 20 21 20 20 19 20 21 21 20 21 21 21 22 22 22 21 20 21 21 21 21 22 23 23 23 23 23 23 23 23 23 23 23
21 21 22 21 21 21 21 22 23 23 22 22 21 21 20 21 21 21 21 22 22 21 21 22 22 22 22 22 22 23 23 23 23 23 23 23 24 24 24 24 24 24 23 24
23 23 21 21 21 21 22 22 22 23 22 22 21 21 21 21 21 22 22 22 22 22 22 23 23 23 23 23 23 24 24 24 24 24 24 24 24 24 24 24 24 24 24 25
24 23 23 21 20 21 22 23 21 21 21 22 22 22 21 22 22 23 22 22 23 23 23 24 24 24 24 24 25 25 24 24 24 24 25 25 25 25 25 25 24 25 25 25
25 25 24 22 20 20 22 22 21 21 22 22 23 24 24 23 23 23 23 23 24 24 25 25 24 24 24 25 25 24 24 25 25 25 25 26 25 25 25 25 25 25 25 26
25 24 23 22 21 21 21 22 22 22 23 24 25 25 24 24 24 24 24 25 25 25 25 25 24 24 24 24 24 24 25 26 26 26 26 26 25 25 25 25 25 25 26 26
26 24 23 23 22 22 22 22 23 23 23 24 24 24 24 24 24 24 24 25 26 25 25 25 25 25 25 24 24 25 26 26 26 26 26 26 25 25 25 25 25 25 26 26
27 25 24 24 23 23 23 24 24 24 23 24 24 25 24 24 24 25 25 25 25 25 25 25 24 25 25 25 25 25 26 26 26 26 25 25 25 24 24 25 25 25 26 26
28 26 25 25 24 23 24 26 25 25 25 25 25 26 25 26 26 26 26 25 25 25 25 25 25 26 26 26 26 26 26 26 26 26 26 25 25 25 25 25 24 24 24 24
30 29 27 27 26 26 26 27 27 27 26 25 25 26 27 27 27 27 27 25 25 25 25 25 25 25 25 26 26 27 27 27 27 27 26 26 26 25 24 24 25 25 25 24
31 29 29 29 27 27 27 28 28 27 27 26 26 27 27 27 27 27 27 27 26 25 25 25 25 25 26 26 26 27 27 28 28 27 27 26 26 25 25 24 24 24 24 25
31 30 30 29 28 28 27 27 28 28 27 27 27 27 27 28 28 28 28 26 25 25 26 26 26 26 26 26 27 27 28 28 28 28 27 27 26 25 24 24 24 25 25 25
31 31 31 30 29 29 28 27 27 27 27 28 28 28 28 28 28 27 26 26 26 25 26 26 27 26 26 27 27 27 27 27 27 26 26 26 26 25 25 25 25 25 26 26
31 31 31 30 29 29 29 29 28 28 29 29 29 28 28 27 26 26 26 25 25 26 26 26 26 26 26 27 27 28 28 27 27 26 26 26 26 25 24 24 25 25 25 26
31 31 31 30 29 30 28 28 28 28 29 29 29 29 28 27 26 26 26 25 26 26 26 26 26 26 27 27 27 27 27 27 27 27 26 26 25 25 25 25 25 25 25 26
30 31 31 30 30 30 30 29 28 29 29 29 28 28 28 28 27 26 26 26 26 26 26 27 27 28 27 27 27 28 28 27 26 25 25 25 25 25 24 24 25 25 25 26
31 31 31 31 31 31 30 30 29 28 29 28 28 28 28 27 27 27 26 26 26 26 27 27 27 27 26 26 26 27 26 26 26 25 25 25 25 24 24 24 24 25 25 25
30 31 31 31 31 31 30 28 28 28 28 28 28 28 28 28 27 27 27 26 25 25 26 26 26 25 26 26 26 26 25 25 25 25 25 24 24 24 24 23 24 24 25 25
28 29 29 30 30 30 29 28 27 27 27 28 28 28 28 28 28 27 26 25 24 25 25 25 26 26 26 26 26 25 25 26 25 25 25 24 24 24 24 24 24 24 24 25
26 27 28 28 28 29 28 28 28 28 28 28 28 28 27 27 27 26 25 24 24 25 25 26 26 26 26 26 26 25 26 26 26 25 25 25 24 24 24 24 24 24 24 25
25 25 26 27 27 27 27 28 28 28 28 28 28 27 27 27 26 26 25 25 25 25 25 26 26 26 26 26 26 25 25 25 25 25 26 25 24 24 24 24 24 24 25 25
25 25 26 26 26 27 26 26 27 27 27 27 27 27 27 26 25 25 25 25 25 25 26 26 26 26 26 26 26 26 26 26 25 25 24 23 23 23 23 23 24 23 24 24
25 25 26 25 26 26 25 25 25 26 26 27 27 26 25 25 25 25 25 25 25 25 25 25 26 26 26 26 26 26 26 26 25 24 22 22 22 22 23 23 23 23 23 24
25 25 25 25 26 26 25 24 24 25 25 26 25 25 24 24 24 25 25 25 25 25 25 25 25 25 25 24 24 24 24 24 23 23 22 21 22 22 22 23 23 22 23 24
23 23 23 24 24 24 23 23 23 23 24 24 23 23 24 24 23 23 24 24 24 24 24 24 23 23 23 24 24 23 23 23 22 22 21 21 21 22 22 22 22 22 22 23
Wind_Direction
245 248 253 256 257 255 258 262 269 279 284 286 288 295 299 303 302 304 307 306 307 310 310 311 312 316 317 314 309 306 306 306 307 308 308 308 308 307 307 309 308 308 308 307
246 249 251 252 253 257 261 264 271 276 280 284 287 290 293 297 302 304 304 305 306 307 307 308 309 310 312 311 310 306 304 303 305 307 307 308 308 307 307 306 306 307 307 308
247 251 251 250 253 256 261 264 269 275 281 284 287 291 294 298 302 302 301 303 306 304 305 306 306 306 307 308 308 308 310 310 311 311 311 310 310 308 307 306 306 305 306 306
250 251 250 251 254 257 261 266 269 273 279 286 290 292 295 298 300 302 301 303 308 306 304 305 305 306 306 307 306 306 309 311 312 311 310 310 309 308 308 307 306 305 304 304
255 255 254 252 253 256 260 265 269 272 276 283 288 291 293 296 299 302 302 304 306 305 303 303 303 303 304 304 303 304 307 309 310 310 310 310 309 308 307 306 306 304 304 304
256 257 256 254 255 259 263 266 272 276 277 280 285 288 292 295 299 301 300 301 303 302 302 302 302 303 303 304 304 304 304 307 307 307 307 307 308 307 306 305 305 304 304 304
255 256 257 258 259 260 262 266 272 276 279 281 283 286 290 293 295 298 299 301 301 300 300 300 301 302 304 305 305 305 305 305 305 305 306 306 306 305 305 305 305 305 304 304
254 255 256 259 261 262 264 266 271 275 278 280 282 284 287 289 293 296 297 297 298 299 300 300 300 301 303 304 305 305 306 306 305 306 306 307 307 305 305 304 303 303 304 304
255 258 259 259 260 262 265 267 270 273 278 282 284 285 287 290 294 296 296 297 297 297 298 299 300 300 301 303 304 305 307 307 307 306 306 306 307 306 307 306 306 306 306 306
256 258 259 258 261 264 265 267 270 272 275 279 283 286 288 290 293 294 295 297 297 297 297 297 298 300 301 301 302 305 307 307 306 306 306 306 306 306 306 306 307 306 307 307
255 257 259 260 262 263 265 267 269 272 274 277 279 282 286 288 291 293 296 295 295 296 296 296 296 298 299 300 302 305 307 308 307 306 304 304 306 306 305 305 306 307 308 307
252 256 259 261 262 261 264 269 271 273 274 277 278 282 284 286 289 291 292 292 293 293 294 296 296 297 298 300 302 304 306 308 308 306 304 304 304 304 304 305 307 307 307 308
251 254 258 261 262 264 265 268 270 273 274 277 281 283 284 285 287 290 290 290 291 292 294 295 294 295 297 298 301 302 304 306 308 306 305 305 305 304 304 305 306 307 306 307
251 254 257 260 263 264 267 271 272 274 275 278 281 284 285 287 289 290 289 290 291 292 294 293 294 296 297 299 300 302 303 305 306 306 305 304 304 303 303 304 305 306 306 306
251 254 256 257 261 263 266 268 268 272 276 279 282 284 285 286 288 288 287 289 290 292 293 293 293 296 297 298 300 301 302 303 304 305 306 306 305 305 304 304 305 306 306 305
250 253 255 256 259 262 265 266 268 271 275 278 281 283 285 286 285 286 286 288 290 291 291 292 293 294 296 298 299 300 301 302 301 302 304 305 305 305 304 304 305 306 307 307
251 253 255 257 259 261 263 266 269 271 274 277 279 281 284 284 284 285 286 288 288 289 290 291 292 294 296 296 298 300 300 301 301 302 302 303 303 303 303 304 305 307 307 307
253 253 255 257 259 260 262 266 269 271 273 275 277 280 282 283 283 283 285 287 287 288 289 290 291 294 295 295 297 298 299 299 300 302 303 303 303 303 303 304 306 307 308 308
253 254 256 257 260 263 264 265 267 269 271 273 275 278 280 281 282 282 282 283 285 286 287 289 291 294 295 296 298 299 300 300 301 302 303 304 305 305 304 305 305 307 308 308
253 255 257 260 261 265 267 268 266 267 270 272 275 277 279 279 280 282 283 281 282 284 287 290 293 294 294 295 297 300 301 301 300 302 302 303 306 306 305 305 306 307 307 309
254 254 256 259 261 263 266 268 269 270 271 273 275 277 278 279 280 281 282 282 284 286 287 289 293 295 294 295 297 299 299 299 299 300 301 301 302 304 305 305 305 306 307 309
254 255 256 258 259 261 264 265 267 270 271 273 275 277 279 279 280 281 281 283 285 287 288 289 291 293 293 295 296 297 297 297 297 298 300 300 299 301 304 305 305 307 308 310
252 253 255 257 259 260 262 264 267 269 271 273 274 276 277 277 278 280 282 283 283 284 285 287 289 292 293 295 296 296 296 296 296 297 299 299 298 300 303 304 305 307 309 310
254 255 257 259 260 261 263 265 267 269 270 272 273 275 276 276 278 280 281 282 283 284 285 287 289 291 293 295 296 296 295 294 295 296 297 298 297 299 301 303 304 306 308 310
258 258 258 259 259 260 262 263 265 268 270 271 273 274 276 278 278 279 280 281 282 283 285 287 289 291 293 294 295 296 295 294 295 295 295 297 297 298 300 303 304 305 307 310
260 259 258 260 261 260 261 263 266 268 270 271 272 274 276 279 281 281 280 280 282 282 284 287 288 291 293 294 296 298 298 298 297 297 297 297 298 299 301 304 305 306 308 310
261 260 260 263 263 261 262 265 267 268 269 271 272 274 276 278 280 281 281 281 282 283 284 285 287 290 292 294 297 298 298 298 298 297 297 297 298 300 302 304 305 308 309 311
Height
5887 5888 5889 5889 5889 5890 5890 5890 5890 5889 5889 5888 5888 5887 5886 5885 5883 5882 5880 5878 5876 5874 5872 5870 5868 5866 5863 5861 5858 5855 5852 5849 5847 5845 5842 5839 5836 5833 5830 5828 5825 5822 5820 5817
5882 5883 5884 5885 5885 5885 5885 5885 5885 5885 5885 5885 5884 5883 5882 5881 5879 5878 5876 5874 5872 5870 5868 5865 5863 5861 5859 5856 5853 5849 5846 5844 5842 5839 5836 5834 5831 5828 5825 5822 5820 5817 5814 5812
5878 5878 5879 5880 5881 5881 5881 5880 5881 5881 5882 5881 5880 5879 5878 5877 5875 5873 5872 5870 5868 5865 5863 5861 5859 5856 5854 5851 5848 5845 5842 5839 5836 5834 5831 5828 5825 5822 5819 5817 5814 5811 5809 5806
5872 5874 5875 5878 5876 5876 5876 5876 5876 5876 5876 5876 5875 5874 5873 5872 5870 5869 5867 5865 5863 5860 5858 5856 5853 5851 5849 5846 5843 5840 5836 5834 5831 5829 5826 5823 5820 5816 5813 5811 5808 5805 5803 5800
5867 5868 5869 5871 5871 5871 5872 5871 5871 5871 5871 5870 5870 5869 5868 5867 5865 5863 5861 5859 5857 5855 5852 5850 5847 5845 5843 5841 5838 5835 5832 5829 5826 5823 5820 5817 5814 5811 5808 5805 5802 5799 5796 5793
5860 5861 5863 5866 5866 5866 5867 5866 5866 5865 5865 5865 5864 5863 5863 5861 5860 5858 5855 5853 5851 5849 5847 5844 5842 5839 5837 5834 5831 5829 5826 5823 5820 5817 5814 5811 5808 5805 5802 5799 5796 5793 5790 5787
5854 5855 5856 5859 5860 5861 5862 5862 5861 5860 5860 5859 5858 5858 5857 5855 5853 5851 5849 5847 5845 5843 5841 5839 5836 5833 5831 5828 5825 5823 5820 5817 5814 5811 5808 5805 5802 5799 5796 5792 5789 5787 5783 5780
5847 5849 5852 5853 5853 5855 5855 5854 5854 5854 5854 5853 5852 5851 5850 5848 5847 5845 5843 5841 5839 5836 5834 5832 5829 5827 5825 5822 5819 5816 5813 5811 5807 5804 5801 5798 5795 5792 5789 5786 5782 5779 5776 5773
5842 5845 5846 5846 5847 5847 5847 5848 5848 5848 5847 5847 5845 5844 5843 5842 5841 5839 5837 5835 5833 5830 5828 5826 5824 5821 5819 5816 5813 5810 5807 5804 5801 5798 5795 5792 5789 5786 5782 5779 5776 5773 5769 5766
5834 5836 5838 5839 5840 5840 5841 5842 5842 5841 5841 5840 5839 5838 5837 5836 5835 5833 5831 5829 5826 5824 5821 5819 5817 5814 5812 5809 5807 5804 5800 5797 5794 5791 5788 5785 5782 5779 5776 5773 5769 5766 5763 5759
5827 5829 5831 5832 5833 5834 5835 5835 5834 5834 5834 5833 5833 5832 5831 5830 5828 5826 5824 5822 5820 5818 5815 5813 5811 5807 5805 5802 5800 5797 5793 5790 5787 5784 5781 5778 5775 5772 5769 5766 5763 5759 5756 5752
5820 5822 5824 5826 5826 5827 5827 5827 5827 5828 5827 5826 5826 5825 5824 5823 5821 5819 5817 5814 5812 5810 5808 5806 5803 5801 5798 5796 5793 5790 5787 5784 5781 5777 5774 5771 5768 5764 5761 5759 5756 5752 5749 5746
5813 5815 5816 5818 5819 5820 5820 5820 5820 5820 5820 5819 5818 5818 5816 5815 5813 5811 5809 5807 5805 5803 5801 5799 5796 5794 5792 5789 5786 5783 5780 5777 5774 5770 5767 5764 5761 5758 5755 5752 5749 5746 5742 5739
5805 5807 5809 5810 5811 5812 5813 5813 5813 5812 5811 5811 5810 5810 5808 5807 5805 5803 5801 5799 5798 5796 5794 5792 5789 5787 5784 5782 5779 5776 5773 5770 5766 5763 5760 5757 5754 5751 5748 5745 5742 5739 5735 5732
5797 5799 5800 5802 5803 5804 5805 5805 5805 5804 5804 5803 5802 5801 5800 5799 5797 5795 5793 5791 5790 5788 5786 5784 5782 5779 5777 5774 5771 5768 5765 5762 5759 5756 5753 5749 5746 5743 5741 5738 5735 5732 5728 5725
5789 5790 5792 5793 5795 5795 5796 5796 5797 5797 5796 5795 5794 5793 5792 5791 5789 5788 5786 5784 5782 5780 5778 5777 5774 5772 5769 5767 5764 5761 5758 5755 5752 5749 5745 5742 5739 5736 5733 5731 5728 5724 5721 5718
5780 5782 5783 5785 5786 5786 5787 5787 5787 5788 5787 5787 5786 5785 5784 5783 5782 5780 5778 5776 5774 5773 5771 5769 5766 5764 5762 5759 5756 5753 5750 5747 5744 5741 5738 5735 5732 5729 5726 5723 5720 5717 5714 5711
5771 5773 5775 5776 5777 5778 5778 5778 5779 5779 5779 5778 5777 5777 5776 5774 5773 5772 5770 5768 5766 5765 5763 5761 5759 5756 5754 5751 5749 5746 5743 5740 5737 5734 5731 5728 5725 5722 5719 5716 5713 5710 5707 5704
5763 5764 5766 5767 5768 5768 5769 5770 5770 5770 5770 5770 5769 5768 5767 5766 5765 5763 5761 5760 5758 5756 5755 5753 5750 5748 5746 5743 5741 5738 5735 5733 5730 5727 5724 5721 5718 5715 5712 5709 5706 5703 5700 5697
5754 5756 5757 5758 5759 5759 5760 5760 5761 5761 5762 5761 5760 5759 5758 5757 5756 5755 5753 5751 5750 5749 5747 5745 5743 5741 5739 5736 5733 5731 5728 5726 5723 5720 5717 5714 5712 5709 5705 5703 5700 5697 5694 5690
5746 5747 5748 5749 5750 5750 5751 5752 5752 5752 5753 5752 5751 5750 5749 5748 5747 5746 5745 5744 5743 5741 5739 5737 5735 5733 5731 5729 5726 5723 5721 5718 5716 5713 5710 5708 5705 5702 5699 5696 5693 5690 5687 5684
5738 5739 5740 5741 5742 5742 5743 5743 5744 5744 5744 5743 5743 5742 5741 5740 5739 5738 5737 5735 5734 5733 5731 5729 5728 5726 5723 5721 5718 5716 5713 5711 5708 5706 5703 5701 5698 5696 5693 5689 5686 5683 5680 5677
5730 5731 5732 5733 5734 5734 5734 5735 5735 5735 5735 5734 5734 5734 5733 5732 5731 5730 5729 5728 5726 5725 5723 5721 5720 5717 5715 5713 5710 5708 5705 5703 5700 5698 5696 5693 5691 5689 5686 5683 5679 5676 5673 5670
5722 5723 5723 5724 5725 5725 5726 5727 5727 5727 5726 5726 5725 5725 5724 5723 5723 5721 5720 5719 5718 5716 5715 5713 5711 5709 5707 5704 5702 5700 5697 5695 5693 5690 5688 5686 5684 5682 5679 5676 5673 5670 5667 5663
5714 5714 5715 5715 5716 5717 5718 5718 5718 5718 5718 5717 5717 5716 5715 5715 5714 5713 5712 5711 5709 5708 5706 5704 5703 5701 5698 5696 5694 5691 5689 5686 5684 5682 5680 5678 5677 5674 5672 5669 5666 5663 5660 5657
5705 5706 5706 5707 5708 5708 5709 5709 5709 5709 5709 5709 5708 5708 5707 5706 5705 5704 5703 5702 5701 5699 5698 5696 5694 5692 5690 5688 5686 5683 5681 5678 5677 5675 5673 5671 5669 5667 5665 5662 5659 5657 5654 5651
5697 5698 5698 5699 5699 5700 5700 5701 5701 5701 5701 5700 5700 5699 5699 5698 5697 5696 5695 5693 5692 5691 5689 5688 5686 5685 5683 5681 5679 5676 5674 5672 5670 5668 5667 5665 5663 5661 5659 5656 5653 5651 5648 5645